Temperature
15 15 16 16 16 16 16 16 16 16 16 16 16 16 16 16 16 16 16 16 16 16 16 16 16 16 15 15 15 16 16 15 16 15 15 15 15 15 15 15 14 14 14
15 15 15 16 16 16 16 16 16 16 16 16 16 16 16 16 16 16 16 16 16 16 16 16 15 15 15 15 15 15 15 15 15 15 15 15 15 14 14 14 14 14 14
15 15 15 15 15 15 16 15 15 16 16 16 16 16 16 16 16 16 16 16 16 16 16 16 15 15 15 15 15 15 15 15 15 15 14 14 14 14 14 14 14 14 14
14 14 15 15 15 15 15 15 15 15 16 16 16 16 16 16 16 16 16 16 16 16 15 15 15 15 15 15 15 15 15 15 15 14 14 13 13 14 13 13 13 13 13
14 14 14 15 15 15 15 15 15 15 15 15 15 16 15 15 15 16 16 16 16 15 15 15 15 15 15 15 15 15 14 14 14 14 13 13 13 13 13 13 13 13 13
13 14 14 14 15 15 15 15 15 15 15 15 15 15 15 15 15 15 15 15 15 15 15 15 15 15 15 15 14 14 14 14 14 13 13 13 13 13 13 13 13 13 13
13 13 13 14 14 14 15 15 15 15 15 15 15 15 15 15 15 15 15 15 15 15 15 15 15 15 15 14 14 14 14 14 13 13 13 12 12 13 12 12 13 13 12
13 13 13 13 14 14 14 14 15 15 15 15 15 15 15 15 15 15 15 15 15 15 15 15 15 14 14 14 14 14 14 14 13 13 12 12 12 12 12 12 12 12 12
12 12 13 13 13 13 14 14 14 14 14 15 15 15 15 15 15 15 15 15 15 15 14 14 14 14 14 14 14 14 13 13 12 12 12 12 12 12 12 12 12 12 12
12 12 12 12 13 13 13 13 14 14 14 14 14 14 14 14 14 14 14 14 15 15 14 14 14 14 14 14 14 13 13 13 12 12 12 12 12 12 12 12 12 12 12
11 11 12 12 12 12 12 13 13 13 13 14 14 14 14 14 14 14 14 14 14 14 14 14 14 14 14 13 13 13 13 12 12 12 12 11 12 11 11 12 12 12 12
11 11 11 11 12 12 12 12 12 13 13 13 13 13 13 13 13 13 14 14 14 14 14 14 13 13 13 13 13 13 12 12 12 12 11 12 11 11 11 11 11 11 11
11 11 11 11 11 11 12 12 12 12 12 12 12 13 13 13 13 13 13 13 13 13 13 13 13 13 13 12 12 12 12 12 11 11 11 12 11 11 11 11 11 11 11
10 10 11 11 11 11 11 11 12 12 12 12 12 12 12 12 13 12 13 13 13 13 13 13 12 12 12 12 12 12 12 11 11 11 11 11 11 11 11 11 11 11 11
9 10 10 10 10 11 11 11 11 12 12 12 12 12 12 12 12 12 12 12 12 12 12 12 12 12 12 12 12 11 11 11 11 11 11 11 11 11 11 11 11 11 10
9 9 9 9 10 10 10 10 11 11 11 11 11 11 11 11 11 11 11 12 12 12 12 12 12 11 11 11 11 11 11 11 11 11 11 11 11 11 11 11 11 11 10
9 9 9 9 9 9 10 10 10 10 11 11 11 11 11 11 11 11 11 11 11 11 11 11 11 11 11 11 11 11 11 11 11 11 11 11 11 11 11 11 11 10 10
8 8 8 8 9 9 9 9 10 10 10 10 10 10 10 10 10 10 11 11 11 11 11 11 10 10 10 10 10 10 10 10 10 10 10 10 10 10 10 10 10 10 10
8 8 8 8 8 8 9 9 9 9 9 9 10 10 10 10 10 10 10 10 10 10 10 10 10 10 10 10 10 10 10 10 10 10 10 10 10 10 10 10 10 10 10
7 7 7 7 8 8 8 8 8 9 9 9 9 9 9 9 10 10 10 10 10 10 10 10 10 9 9 9 9 9 9 9 10 10 10 10 10 10 10 10 10 10 10
7 7 7 7 7 7 8 8 8 8 8 8 9 9 9 9 9 9 9 9 9 9 9 9 9 9 9 9 9 9 9 9 9 9 9 9 10 10 9 9 9 9 9
6 7 6 7 7 7 7 7 8 8 8 8 8 8 8 9 9 9 9 9 9 9 9 9 9 9 9 8 8 8 7 8 9 9 9 9 9 9 9 9 9 9 9
6 6 6 6 6 7 7 7 7 7 7 7 8 8 8 8 8 8 8 8 8 8 8 8 8 8 8 8 8 8 7 8 7 8 9 9 9 9 9 9 9 9 9
5 5 5 6 6 6 6 6 6 7 7 7 7 7 8 8 7 8 8 8 8 8 8 8 8 8 8 8 7 8 7 7 7 7 8 8 8 8 8 8 8 8 8
4 5 5 5 5 6 6 6 6 6 6 6 6 6 7 7 7 7 7 7 7 7 8 8 8 8 7 7 7 7 7 7 7 7 7 7 7 8 8 8 8 8 8
4 4 4 4 5 5 5 5 5 5 6 6 6 6 6 6 6 6 6 7 7 7 7 7 7 7 7 7 7 7 7 7 7 7 6 6 7 7 7 8 8 8 8
Wind_Speed
0 0 1 1 2 5 5 6 7 8 10 10 10 10 10 9 10 10 10 9 9 9 9 10 10 10 10 10 11 10 10 11 11 11 10 10 10 10 10 9 7 9 10
1 2 3 1 3 5 5 6 7 8 9 10 10 10 9 9 9 9 9 9 9 9 9 10 10 10 10 10 10 10 10 10 10 10 9 10 9 9 9 8 7 9 10
1 2 3 2 2 5 6 5 6 7 9 9 10 9 9 9 9 9 9 9 9 9 9 9 9 9 9 10 10 10 10 10 9 8 6 7 8 9 9 9 9 9 9
1 1 2 2 1 4 6 6 6 7 8 9 9 9 9 9 9 8 8 8 8 9 9 9 9 9 9 9 9 9 9 9 8 5 5 6 7 8 8 7 8 8 8
1 1 2 2 2 3 5 5 6 6 7 8 9 9 8 8 8 8 8 8 8 9 9 9 9 9 9 9 9 9 9 8 6 4 5 5 5 7 7 6 7 7 6
0 0 1 1 1 3 4 5 6 6 7 7 8 9 9 8 8 8 8 8 8 8 8 8 9 9 9 9 9 8 8 7 5 4 4 4 4 7 6 6 6 6 5
1 1 1 0 0 2 4 5 6 6 7 7 7 8 8 8 8 8 8 8 7 8 8 8 9 9 9 9 8 7 7 5 4 4 4 4 5 6 6 5 5 5 5
1 1 1 1 0 1 3 4 6 6 6 7 7 7 8 8 8 8 8 7 7 7 7 8 8 9 9 9 8 7 6 5 4 3 3 4 5 5 5 5 4 5 4
1 1 1 2 2 2 3 5 5 6 7 7 7 7 7 7 8 8 8 8 7 7 7 7 8 8 8 8 8 7 5 3 4 3 3 4 5 5 4 4 3 3 3
2 1 2 2 2 3 4 4 5 5 6 6 7 6 6 7 8 7 7 7 7 7 7 7 7 8 8 8 8 7 5 5 4 4 3 4 5 4 3 3 2 2 2
2 2 2 2 2 3 4 4 5 5 5 6 6 6 6 7 7 7 6 6 7 8 7 7 7 7 7 7 7 6 5 4 4 3 3 4 4 4 3 3 2 2 2
4 4 3 3 3 3 3 4 5 6 6 6 6 6 5 5 6 6 6 6 7 7 7 7 7 7 7 6 7 7 5 5 4 3 3 4 3 3 3 3 3 3 2
5 4 4 3 3 2 2 3 3 3 4 5 6 5 5 4 5 6 5 6 6 7 6 6 6 5 5 4 5 5 4 4 4 3 3 4 4 3 4 4 4 4 4
6 5 4 3 3 3 2 2 2 3 3 3 4 5 4 3 3 4 4 5 5 5 5 5 4 4 4 5 5 5 5 4 4 4 3 4 4 5 4 4 4 5 5
6 5 4 4 3 3 2 2 2 3 3 4 4 5 5 3 4 4 4 4 5 5 5 4 4 4 4 4 5 5 5 5 5 5 4 4 4 5 5 4 5 5 5
6 5 5 5 4 3 3 3 2 2 3 4 4 5 5 4 3 4 4 4 4 5 4 4 4 4 4 3 4 5 5 5 5 5 5 5 5 5 6 6 5 5 5
5 5 5 5 4 4 4 3 2 2 3 3 4 5 5 5 4 5 4 4 5 5 5 4 4 4 3 4 4 4 4 5 5 5 5 5 5 5 5 6 5 6 6
4 4 5 4 4 4 3 3 2 2 3 3 3 4 4 4 4 4 4 4 5 5 4 4 4 3 3 3 3 3 4 4 6 5 5 5 5 5 5 5 6 6 6
4 4 4 4 4 3 3 2 2 2 2 3 3 4 4 4 4 4 4 4 4 4 4 4 4 4 4 3 3 3 4 4 5 5 5 5 5 5 5 5 5 5 6
3 3 3 3 3 3 2 2 2 2 2 2 2 3 3 4 4 4 3 5 5 4 5 5 5 4 3 3 3 2 3 5 5 5 5 5 5 6 6 6 5 5 5
3 2 3 2 2 2 2 3 3 2 2 2 2 3 3 4 4 4 3 4 4 5 6 6 4 5 4 3 2 2 3 5 6 6 5 5 6 6 6 6 5 5 4
2 3 3 3 3 3 3 3 3 3 2 2 2 2 3 4 4 4 4 4 5 5 6 6 5 4 4 4 3 2 3 3 5 6 5 5 6 5 6 6 6 5 5
3 3 3 3 3 3 3 1 1 1 1 2 2 3 3 4 4 4 5 5 5 5 6 7 6 7 5 5 5 3 3 3 2 4 6 6 6 5 6 6 6 6 6
3 3 2 2 3 2 2 2 2 1 2 4 3 3 2 3 4 4 5 5 5 5 6 7 6 6 7 6 5 4 4 3 3 2 3 5 6 6 7 6 6 6 6
2 2 2 3 2 1 1 2 3 2 2 2 2 2 2 2 3 4 5 5 6 6 6 6 6 7 6 6 5 4 4 4 5 4 4 4 5 5 6 6 6 6 6
3 2 2 2 2 2 1 2 3 3 3 2 2 2 2 2 3 4 5 5 6 6 6 7 7 8 7 7 6 6 5 4 5 5 5 5 5 4 5 5 6 5 5
Wind_Direction
136 84 71 18 143 135 133 139 139 142 146 145 142 141 139 136 134 133 128 126 124 121 119 119 117 115 115 114 114 109 106 103 100 99 98 98 97 97 95 94 95 89 86
142 156 128 55 151 145 139 137 141 141 145 145 144 143 144 143 141 139 135 133 129 127 126 122 118 115 116 116 115 111 107 104 99 99 102 99 95 95 95 90 78 85 88
96 137 146 92 143 157 144 140 139 144 148 148 145 144 145 146 145 143 141 139 136 132 129 126 122 118 116 114 114 114 111 107 103 103 113 109 101 95 94 92 86 89 86
73 127 136 85 93 153 152 144 143 143 149 150 148 147 147 146 144 144 144 143 141 138 133 130 127 123 119 117 116 115 112 110 108 118 115 107 106 100 100 95 95 91 86
51 106 114 83 96 141 148 150 146 141 146 152 152 150 149 148 146 146 146 144 143 140 136 133 130 128 124 121 119 118 114 112 115 126 108 106 106 105 103 98 98 95 91
348 78 119 78 94 145 152 149 153 151 147 151 155 154 155 153 149 145 146 146 144 142 141 139 137 132 130 129 123 121 122 120 138 124 112 111 111 110 107 99 96 98 95
306 320 154 100 83 154 149 157 156 155 157 150 153 157 159 157 153 150 146 144 146 145 142 144 144 140 135 133 131 126 125 133 138 124 120 114 106 110 116 110 100 98 96
292 310 204 196 350 185 166 159 165 163 162 156 150 153 158 161 159 157 153 149 146 149 147 146 148 148 144 143 142 136 133 153 150 137 131 122 109 118 119 111 107 105 99
291 290 242 223 220 231 193 170 165 169 168 160 155 150 155 156 161 166 162 157 151 148 149 149 151 155 153 150 146 141 139 161 170 149 140 129 122 131 125 115 110 114 107
285 278 259 236 226 229 207 174 168 167 168 166 160 153 156 162 162 162 167 163 158 151 149 151 153 156 154 152 149 147 154 178 173 157 151 132 132 146 144 146 143 137 129
283 264 263 247 237 236 222 191 179 173 162 163 166 155 160 173 172 170 165 160 164 159 156 155 153 155 155 154 154 156 174 182 172 167 158 129 148 164 167 179 187 189 180
276 267 254 247 247 237 219 198 192 186 178 180 181 177 176 178 173 168 156 154 159 159 157 154 150 160 167 166 161 167 183 187 183 174 155 143 169 181 188 198 204 207 209
261 260 256 254 244 236 231 211 198 196 193 190 188 184 182 172 171 170 163 159 163 166 166 159 164 172 176 172 177 187 193 193 192 184 166 162 193 204 210 209 216 221 225
260 254 252 250 242 234 235 235 221 208 206 202 193 189 182 183 187 185 183 179 181 183 180 180 180 178 179 183 189 194 198 201 198 194 176 173 209 221 226 226 226 233 232
265 257 251 241 241 239 232 239 240 222 217 208 196 196 191 190 193 196 190 184 188 190 188 184 185 183 184 189 196 202 202 206 209 207 195 182 215 228 231 236 241 241 241
266 259 248 236 235 237 236 242 243 240 220 212 205 210 197 192 198 195 196 187 187 191 191 192 191 191 191 191 201 209 207 207 211 214 215 200 206 227 237 240 247 247 244
265 257 239 234 231 232 236 238 238 250 234 218 211 207 204 197 201 201 202 195 189 185 185 185 191 194 195 201 207 217 219 214 210 215 220 221 216 216 232 239 241 247 245
264 257 237 225 227 228 239 246 240 242 243 225 212 206 203 197 204 206 198 200 189 185 182 185 196 197 200 208 213 223 228 226 221 217 218 220 224 225 222 232 241 244 245
257 264 243 226 222 225 239 248 251 246 250 238 216 205 200 195 203 208 202 198 191 192 193 190 197 199 200 209 219 229 235 233 229 220 219 221 223 225 225 220 229 239 248
273 275 257 237 232 226 224 243 248 246 266 255 222 203 195 200 202 203 205 201 198 199 198 194 191 191 199 207 215 240 250 241 231 226 224 223 223 224 226 223 221 225 241
273 279 263 232 229 220 213 222 227 236 249 263 229 201 198 207 205 197 208 209 211 208 202 196 189 188 194 195 221 248 261 250 238 230 225 227 226 226 227 227 228 230 234
278 273 251 236 234 225 222 223 230 238 250 257 226 206 205 205 209 203 205 212 211 207 204 200 196 199 203 200 216 233 248 244 236 230 225 225 230 229 229 230 229 232 235
294 278 253 251 251 237 217 187 208 239 279 282 254 224 213 213 211 212 210 217 212 211 207 208 208 206 204 206 212 218 232 240 272 224 226 226 227 230 229 227 230 231 233
295 284 273 276 262 233 201 197 209 221 247 268 261 241 223 222 219 215 215 223 220 219 216 213 215 218 207 208 211 226 240 252 246 257 232 226 228 234 232 229 230 229 229
311 308 307 300 285 267 221 219 235 236 252 272 274 256 256 235 224 221 220 223 225 223 221 219 220 221 217 218 219 220 227 233 238 243 252 247 236 233 237 233 231 229 228
335 326 317 298 301 310 285 249 246 243 250 260 261 265 266 258 244 228 224 227 229 229 225 223 223 224 223 221 223 221 220 219 223 231 240 248 256 248 239 237 234 229 227
Height
1512 1513 1513 1514 1515 1516 1517 1518 1518 1519 1520 1521 1521 1522 1522 1523 1523 1523 1524 1524 1525 1525 1526 1526 1526 1527 1527 1527 1527 1528 1528 1528 1528 1528 1528 1528 1528 1528 1528 1528 1528 1528 1528
1512 1512 1512 1514 1515 1516 1517 1517 1518 1519 1520 1520 1521 1522 1522 1523 1523 1523 1524 1524 1525 1525 1526 1526 1526 1527 1527 1527 1527 1528 1528 1528 1529 1529 1529 1529 1529 1529 1529 1528 1529 1529 1528
1511 1512 1512 1513 1514 1515 1516 1517 1518 1518 1519 1520 1521 1521 1522 1522 1523 1523 1524 1524 1525 1525 1525 1526 1526 1527 1527 1527 1528 1528 1528 1529 1529 1529 1529 1530 1529 1529 1529 1529 1529 1529 1528
1511 1511 1511 1512 1513 1514 1516 1516 1517 1518 1519 1519 1520 1521 1521 1522 1522 1523 1523 1524 1524 1525 1525 1526 1526 1526 1527 1527 1527 1528 1528 1529 1529 1529 1530 1530 1530 1529 1529 1529 1529 1529 1528
1511 1511 1511 1511 1512 1513 1514 1515 1516 1517 1518 1519 1519 1520 1521 1521 1522 1522 1523 1523 1524 1524 1525 1525 1526 1526 1526 1527 1527 1528 1528 1529 1529 1530 1530 1530 1530 1529 1529 1529 1529 1528 1528
1510 1511 1510 1510 1511 1512 1513 1514 1515 1516 1517 1517 1518 1519 1520 1520 1521 1521 1522 1522 1523 1524 1524 1525 1525 1525 1526 1526 1527 1527 1528 1528 1529 1530 1530 1530 1530 1529 1529 1529 1528 1528 1528
1510 1510 1510 1510 1510 1511 1511 1513 1514 1515 1516 1516 1517 1518 1519 1520 1520 1521 1521 1521 1522 1523 1523 1524 1524 1525 1525 1526 1526 1527 1527 1528 1529 1529 1529 1529 1529 1528 1528 1528 1528 1528 1527
1508 1508 1508 1508 1509 1509 1510 1511 1512 1513 1514 1515 1516 1517 1518 1518 1519 1520 1520 1521 1521 1522 1522 1523 1523 1524 1524 1525 1525 1526 1526 1527 1528 1528 1528 1528 1528 1528 1528 1528 1527 1527 1527
1507 1507 1507 1507 1507 1508 1509 1510 1511 1512 1512 1513 1514 1515 1516 1517 1518 1518 1519 1519 1520 1520 1521 1522 1522 1522 1523 1524 1524 1525 1525 1526 1527 1527 1527 1527 1527 1527 1527 1526 1526 1526 1526
1505 1505 1505 1505 1506 1506 1507 1508 1509 1510 1511 1511 1512 1513 1514 1515 1516 1516 1517 1518 1518 1519 1519 1520 1521 1521 1522 1522 1523 1524 1524 1525 1526 1526 1526 1526 1525 1525 1525 1525 1525 1525 1525
1503 1503 1503 1503 1503 1504 1505 1506 1506 1508 1508 1509 1510 1511 1512 1513 1514 1514 1515 1516 1517 1517 1518 1518 1519 1519 1520 1521 1522 1522 1523 1524 1524 1525 1525 1524 1524 1524 1524 1524 1524 1524 1523
1500 1501 1501 1501 1501 1502 1502 1503 1504 1505 1506 1507 1508 1508 1509 1510 1511 1512 1513 1514 1514 1515 1516 1516 1517 1518 1518 1519 1520 1521 1521 1522 1522 1522 1522 1522 1523 1523 1522 1522 1522 1522 1522
1498 1498 1498 1498 1499 1499 1499 1500 1501 1502 1503 1504 1505 1505 1506 1507 1508 1509 1510 1511 1512 1513 1513 1514 1515 1515 1516 1516 1517 1518 1519 1520 1520 1520 1520 1520 1521 1521 1521 1520 1520 1520 1520
1496 1495 1495 1496 1496 1496 1497 1497 1498 1499 1499 1501 1502 1503 1503 1504 1505 1506 1507 1508 1509 1510 1510 1511 1512 1513 1513 1514 1515 1515 1516 1517 1517 1518 1518 1518 1518 1518 1518 1518 1518 1518 1518
1492 1492 1492 1493 1493 1493 1494 1494 1495 1496 1496 1497 1498 1499 1501 1501 1502 1503 1504 1505 1506 1507 1508 1508 1509 1510 1511 1511 1512 1513 1513 1514 1515 1515 1515 1515 1515 1516 1516 1516 1516 1516 1516
1489 1489 1489 1490 1490 1491 1491 1491 1492 1492 1493 1494 1495 1496 1497 1498 1499 1500 1500 1501 1503 1504 1504 1505 1507 1507 1508 1509 1509 1510 1510 1511 1511 1512 1512 1512 1513 1513 1513 1513 1513 1513 1513
1486 1486 1486 1487 1487 1488 1488 1488 1489 1489 1490 1490 1492 1493 1494 1495 1496 1496 1497 1498 1499 1501 1501 1502 1503 1504 1505 1506 1506 1507 1507 1507 1508 1509 1509 1510 1510 1510 1510 1510 1510 1511 1511
1483 1483 1483 1484 1484 1485 1485 1485 1486 1486 1486 1487 1488 1489 1490 1491 1492 1493 1494 1494 1495 1497 1498 1499 1500 1500 1501 1502 1503 1504 1504 1504 1505 1505 1506 1506 1506 1507 1507 1507 1508 1508 1508
1480 1480 1480 1480 1481 1480 1481 1482 1483 1483 1483 1484 1485 1485 1486 1487 1488 1489 1490 1490 1492 1493 1494 1495 1496 1497 1498 1499 1500 1500 1501 1501 1501 1502 1502 1503 1503 1503 1504 1504 1504 1504 1505
1477 1477 1477 1477 1477 1478 1478 1480 1480 1480 1481 1481 1481 1482 1483 1484 1485 1486 1487 1487 1488 1489 1490 1491 1492 1494 1495 1496 1496 1497 1497 1497 1497 1498 1498 1499 1500 1500 1501 1501 1501 1501 1501
1473 1473 1473 1473 1474 1475 1476 1477 1477 1477 1477 1477 1478 1478 1479 1481 1482 1483 1484 1484 1485 1486 1487 1488 1488 1489 1491 1493 1493 1493 1494 1494 1493 1493 1494 1495 1496 1497 1497 1497 1497 1497 1497
1469 1470 1470 1470 1471 1472 1472 1473 1473 1473 1473 1474 1474 1475 1476 1477 1479 1479 1480 1481 1482 1483 1483 1484 1485 1486 1487 1488 1490 1490 1491 1492 1490 1489 1490 1491 1492 1493 1493 1493 1493 1493 1494
1467 1467 1467 1467 1468 1469 1469 1470 1470 1470 1470 1471 1471 1471 1472 1474 1475 1476 1477 1478 1478 1479 1480 1481 1481 1482 1483 1484 1486 1487 1488 1487 1487 1486 1486 1487 1488 1488 1489 1489 1489 1489 1490
1465 1465 1464 1464 1465 1465 1466 1466 1466 1466 1466 1468 1468 1467 1468 1470 1472 1473 1473 1474 1475 1476 1476 1477 1478 1479 1480 1480 1481 1482 1484 1484 1485 1483 1483 1483 1484 1484 1485 1485 1485 1486 1486
1462 1462 1461 1462 1462 1462 1462 1463 1464 1464 1465 1465 1465 1464 1465 1466 1468 1469 1470 1470 1471 1472 1473 1473 1474 1475 1476 1476 1477 1478 1479 1480 1480 1480 1479 1480 1480 1480 1481 1481 1481 1481 1481
1461 1460 1460 1460 1459 1459 1460 1461 1461 1461 1461 1461 1461 1461 1461 1462 1464 1465 1466 1466 1467 1468 1468 1469 1470 1471 1471 1472 1473 1473 1474 1474 1475 1475 1475 1475 1476 1476 1476 1476 1477 1477 1477